Content
SEND FEEDBACK

Daily
Averages
Monthly
Summary
United States of America

NEW YORK - CENTRAL PARK, NEW YORK


Home > North America > United States > New York
Elevation: 14 feet     Latitude: 40 47N     Longitude: 073 58W

WEATHER
 
SELECT A DAY
Number of Records: 148,328;   Date Range: 11/1/95 - 9/18/14
 
SHARE

PRINT THIS DATA

[ ← Previous Day ]
WEATHER ALMANAC - APRIL 23, 2013
[ Next Day → ]
[ °C ]   °F
Weather ElementAverageHighLow
Temperature45.3 °F52 °F (6:51 pm)41 °F (4:15 am)
Dewpoint35.2 °F39 °F (11:26 am)30 °F (5:51 am)
Humidity68 %86 % (11:26 am)61 % (6:51 pm)
Barometer30.31 in30.49 in (1:14 am)30.12 in (10:51 pm)
Wind Speed9.5 mph16.1 mph (2:51 am)
Wind Gust25.3 mph (4:15 am)
Weather ElementAverage
Visibility9.6 mi
Wind DirectionNE (48.4 °)

Weather ElementTotal
Precipitation---
Heating Degree Days18.5 (Base 65)
Averaged from 31 records on April 23, 2013
WEATHER CONDITIONS BREAKOUT
WIND DIRECTION BREAKOUT
WEATHER BY HOUR - APRIL 23, 2013
[ °C ]   °F
Local TimeTemperatureDewpointHumidityBarometerVisibilityWind DirectionWind SpeedGust SpeedPrecipitationEventsConditions
1:14 AM44.1 °F32.0 °F63 %30.49 in10.0 miEast (80°)11.5 mph20.7 mphMostly Cloudy
1:51 AM44.1 °F33.1 °F65 %30.46 in10.0 miENE (70°)11.5 mph20.7 mphOvercast
2:26 AM42.1 °F32.0 °F67 %30.46 in10.0 miENE (70°)15.0 mph23.0 mphScattered Clouds
2:51 AM42.1 °F32.0 °F67 %30.43 in10.0 miENE (70°)16.1 mph24.2 mphScattered Clouds
3:51 AM42.1 °F32.0 °F67 %30.42 in10.0 miENE (60°)13.8 mph24.2 mphOvercast
4:15 AM41.0 °F30.9 °F67 %30.43 in10.0 miEast (80°)15.0 mph25.3 mphMostly Cloudy
4:51 AM41.0 °F30.9 °F67 %30.40 in10.0 miNE (50°)12.7 mph20.7 mphMostly Cloudy
5:07 AM41.0 °F30.9 °F67 %30.42 in10.0 miNE (50°)11.5 mph20.7 mphOvercast
5:51 AM41.0 °F30.0 °F65 %30.40 in10.0 miENE (60°)15.0 mph19.6 mphOvercast
6:49 AM41.0 °F30.2 °F65 %30.41 in10.0 miNE (50°)11.5 mph19.6 mphOvercast
6:51 AM41.0 °F30.0 °F65 %30.39 in10.0 miENE (60°)9.2 mph18.4 mphOvercast
7:51 AM41.0 °F30.9 °F67 %30.38 in10.0 miENE (60°)9.2 mphOvercast
8:51 AM42.1 °F33.1 °F70 %30.37 in10.0 miENE (60°)11.5 mphOvercast
9:51 AM43.0 °F34.0 °F71 %30.36 in10.0 miVariable6.9 mphOvercast
10:51 AM43.0 °F36.0 °F76 %30.35 in5.0 miNE (50°)12.7 mph19.6 mphHaze
11:26 AM43.0 °F39.0 °F86 %30.36 in4.0 miVariable6.9 mphOvercast
11:51 AM44.1 °F37.9 °F79 %30.33 in10.0 miVariable5.8 mph21.9 mphOvercast
12:51 PM45.0 °F37.9 °F76 %30.30 in10.0 miENE (60°)10.4 mph19.6 mphOvercast
1:06 PM46.0 °F37.9 °F73 %30.31 in10.0 miNE (50°)9.2 mphOvercast
1:51 PM48.0 °F37.9 °F68 %30.26 in10.0 miNE (50°)8.1 mphOvercast
2:51 PM48.0 °F37.9 °F68 %30.24 in10.0 miVariable5.8 mphOvercast
3:51 PM48.9 °F37.9 °F66 %30.22 in10.0 miVariable4.6 mphOvercast
4:51 PM51.1 °F39.0 °F63 %30.22 in10.0 miNorth (10°)9.2 mphOvercast
5:51 PM51.1 °F39.0 °F63 %30.20 in10.0 miNNE (30°)9.2 mphOvercast
6:51 PM52.0 °F39.0 °F61 %30.18 in10.0 miVariable5.8 mphOvercast
7:51 PM51.1 °F39.0 °F63 %30.16 in10.0 miVariable4.6 mphOvercast
8:51 PM51.1 °F39.0 °F63 %30.13 in10.0 miNE (50°)9.2 mph17.3 mphOvercast
9:03 PM50.0 °F39.0 °F66 %30.15 in10.0 miVariable5.8 mphMostly Cloudy
9:51 PM48.9 °F37.9 °F66 %30.14 in10.0 miNE (40°)6.9 mphPartly Cloudy
10:51 PM48.0 °F37.9 °F68 %30.12 in10.0 miVariable3.5 mphClear
11:51 PM46.9 °F37.9 °F71 %30.12 in10.0 miNNW (340°)5.8 mphClear
Hourly data recorded from KNYC, located miles away from New York - Central Park, New York







STORIES FROM OUR PARTNERS